Hibbing, MN

4:17 AM CST on January 16, 2018 (GMT -0600)
Chisholm-hibbing

Weather History for KHIB - October, 2011

Change the Weather History Date:

Saturday, October 8, 2011

  Actual Average Record
Temperature  
Mean Temperature 60 °F 44 °F  
Max Temperature 66 °F 55 °F 81 °F (2003)
Min Temperature 55 °F 31 °F 20 °F (2000)
Degree Days  
Heating Degree Days 4 21  
Month to date heating degree days 158  
Cooling Degree Days 0 0  
Month to date cooling degree days 0  
Growing Degree Days 10 (Base 50)    
Moisture  
Dew Point 55 °F    
Average Humidity 80    
Maximum Humidity 100    
Minimum Humidity 59    
Precipitation  
Precipitation 0.09 in 0.09 in 1.37 in (1949)
Month to date precipitation 0.74  
Sea Level Pressure  
Sea Level Pressure 29.96 in    
Wind  
Wind Speed 6 mph (SW)    
Max Wind Speed 10 mph    
Max Gust Speed 21 mph    
Visibility 9 miles    
Events Rain , Thunderstorm    
T = Trace of Precipitation, MM = Missing Value Source: NWS Daily Summary

Daily Weather History Graph

Daily Weather History Graph

Search for Another Location

Airport or City:

Trip Planner

Search our weather history database for the weather conditions in past years. The results will help you decide how hot, cold, wet, or windy it might be!

Date:

Astronomy

Oct. 08, 2011 Rise Set
Actual Time 7:19 AM CDT 6:37 PM CDT
Civil Twilight 6:48 AM CDT 7:08 PM CDT
Nautical Twilight 6:13 AM CDT 7:43 PM CDT
Astronomical Twilight 5:37 AM CDT 8:19 PM CDT
Moon 4:56 PM CDT (10/8) 3:56 AM CDT (10/8)
Length of Visible Light 12h 19m
Length of Day
11h 17m
Waxing Gibbous, 90% of the Moon is Illuminated
Oct 8
Waxing Gibbous
Oct 11
Full
Oct 19
Last Quarter
Oct 26
New
Nov 2
First Quarter

Hourly Weather History & Observations

Time (CDT) Temp. Dew Point Humidity Pressure Visibility Wind Dir Wind Speed Gust Speed Precip Events Conditions
12:07 AM 66.2 °F 64.4 °F 94% 29.81 in 10.0 mi West 9.2 mph 20.7 mph 0.04 in Rain Light Rain
12:53 AM 64.4 °F - N/A% 29.83 in 7.0 mi SW 8.1 mph 18.4 mph N/A Rain Light Rain
1:28 AM 64.4 °F - N/A% 29.84 in 4.0 mi SW 9.2 mph 19.6 mph 0.05 in Rain , Thunderstorm Light Thunderstorms and Rain
1:43 AM 64.4 °F - N/A% 29.83 in 10.0 mi SSW 10.4 mph 16.1 mph 0.06 in Rain Light Rain
1:53 AM 64.0 °F - N/A% 29.82 in 10.0 mi Variable 5.8 mph - 0.07 in Rain Light Rain
2:53 AM 63.0 °F - N/A% 29.84 in 10.0 mi SSW 10.4 mph 20.7 mph 0.00 in   Overcast
3:53 AM 61.0 °F - N/A% 29.85 in 10.0 mi South 8.1 mph - 0.00 in Rain Light Rain
4:53 AM 59.0 °F 59.0 °F 100% 29.86 in 10.0 mi South 3.5 mph - 0.00 in   Scattered Clouds
5:53 AM 57.9 °F 57.9 °F 100% 29.88 in 10.0 mi Calm Calm - N/A   Partly Cloudy
6:40 AM 55.4 °F 55.4 °F 100% 29.91 in 1.8 mi Calm Calm - N/A   Clear
6:49 AM 55.4 °F 55.4 °F 100% 29.92 in 3.0 mi Calm Calm - N/A   Scattered Clouds
6:53 AM 55.0 °F 55.0 °F 100% 29.92 in 7.0 mi Calm Calm - N/A   Scattered Clouds
7:53 AM 60.1 °F 57.9 °F 93% 29.93 in 10.0 mi SSW 3.5 mph - N/A   Mostly Cloudy
8:53 AM 61.0 °F 57.9 °F 90% 29.96 in 10.0 mi Variable 3.5 mph - N/A   Scattered Clouds
9:53 AM 64.0 °F 57.0 °F 78% 29.97 in 10.0 mi SW 4.6 mph - N/A   Scattered Clouds
10:53 AM 62.1 °F 57.0 °F 84% 29.98 in 10.0 mi Calm Calm - 0.01 in Rain Light Rain
11:53 AM 66.0 °F 54.0 °F 65% 30.00 in 10.0 mi Variable 5.8 mph - 0.00 in   Clear
12:53 PM 66.2 °F 51.8 °F 60% 30.01 in 10.0 mi SSW 9.2 mph - N/A   Overcast
1:53 PM 66.0 °F 51.1 °F 59% 30.03 in 10.0 mi SW 8.1 mph - N/A   Overcast
2:53 PM 66.0 °F 53.1 °F 63% 30.02 in 10.0 mi South 8.1 mph - N/A   Overcast
3:53 PM 64.9 °F 55.9 °F 73% 30.04 in 10.0 mi SSW 8.1 mph - N/A   Overcast
4:53 PM 64.0 °F 57.0 °F 78% 30.05 in 10.0 mi WSW 5.8 mph - N/A   Overcast
5:53 PM 64.0 °F 55.0 °F 73% 30.05 in 10.0 mi West 4.6 mph - N/A   Overcast
6:53 PM 64.4 °F 53.6 °F 68% 30.05 in 10.0 mi West 3.5 mph - N/A   Overcast
7:53 PM 63.0 °F 52.0 °F 67% 30.09 in 10.0 mi Calm Calm - N/A   Overcast
8:53 PM 61.0 °F 53.1 °F 75% 30.09 in 10.0 mi Calm Calm - N/A   Overcast
9:53 PM 62.1 °F 51.1 °F 67% 30.11 in 10.0 mi WNW 6.9 mph - 0.00 in   Overcast
10:53 PM 60.1 °F 52.0 °F 75% 30.14 in 10.0 mi WNW 6.9 mph - 0.00 in Rain Light Rain
11:53 PM 57.9 °F 54.0 °F 87% 30.15 in 10.0 mi SW 3.5 mph - 0.01 in   Overcast